"startDT [UTC]","vpos","CH4 [ppm]","stdev(CH4) [ppm]","CO2 [ppm]","stdev(CO2) [ppm]","H2O_reported [%]","stdev(H2O_reported)","CavityPressure [torr]","CavityTemp [C]","OutletValve","CH4_dry [ppm]","CO2_dry [ppm]","DasTemp [C]","EtalonTemp [C]","WarmBoxTemp [C]","MPVPosition","T_ECpre [C]","T_EC1 [C]","T_EC2 [C]","p_inlet [hPa]","p_in [hPa]","p_out [hPa]","T_inlet [C]","RH_inlet [%]","dwpt_inlet [C]","T_vent [C]","RH_vent [%]","dwpt_vent [C]","flow_vent [l min-1]","flow_inlet [l min-1]","dwpt_sample [C]","T_room [C]"
2015-06-06 00:00:00,3.0,1.87779,0.01282,399.015,1.879,0.2019,0.3053,139.785,45.000,31120.56144,1.88355,400.225,34.764,45.067,45.000,0.00,0.10,-272.72,-272.78,-7,459,-7,25.2,21.1,1.4,24.9,21.7,1.6,5.73,1.85,-1.9,28.9
2015-06-06 00:01:00,3.0,1.87580,0.00029,397.017,0.041,0.0361,0.0016,139.997,45.000,30945.78613,1.87645,397.193,34.770,45.067,45.000,0.00,0.10,-272.73,-272.79,-8,459,-7,25.3,21.1,1.4,25.0,21.7,1.6,5.73,1.91,-1.9,28.9
2015-06-06 00:02:00,3.0,1.87577,0.00023,397.167,0.072,0.0311,0.0024,139.997,45.000,30889.40337,1.87635,397.310,34.772,45.067,45.000,0.00,0.10,-272.72,-272.78,-7,459,-7,25.3,21.3,1.5,25.0,21.8,1.6,5.73,1.90,-1.9,28.9
2015-06-06 00:03:00,3.0,1.87593,0.00039,397.357,0.046,0.0257,0.0020,139.997,45.000,30842.88057,1.87639,397.478,34.751,45.067,45.000,0.00,0.10,-272.72,-272.78,-7,460,-7,25.3,21.3,1.5,25.0,21.9,1.7,5.73,1.90,-1.9,28.9
2015-06-06 00:04:00,3.0,1.87596,0.00033,397.455,0.034,0.0200,0.0020,139.997,45.000,30806.95785,1.87634,397.551,34.749,45.067,45.000,0.00,0.10,-272.73,-272.78,-8,460,-7,25.3,21.4,1.7,25.0,22.0,1.8,5.73,1.90,-1.9,28.9
2015-06-06 00:05:00,3.0,1.87602,0.00027,397.497,0.038,0.0158,0.0025,140.000,45.000,30775.79251,1.87632,397.573,34.748,45.067,45.000,0.00,0.10,-272.72,-272.78,-7,460,-7,25.3,21.5,1.7,25.0,22.1,1.8,5.73,1.90,-1.9,28.9
2015-06-06 00:06:00,3.0,1.87613,0.00038,397.514,0.040,0.0119,0.0020,139.998,45.000,30748.04652,1.87636,397.569,34.749,45.067,45.000,0.00,0.10,-272.71,-272.77,-8,460,-7,25.3,21.4,1.7,25.0,22.0,1.8,5.73,1.90,-1.9,28.9
2015-06-06 00:07:00,3.0,1.87602,0.00027,397.536,0.028,0.0102,0.0017,139.997,45.000,30728.65675,1.87620,397.585,34.748,45.067,45.000,0.00,0.10,-272.72,-272.78,-8,460,-7,25.3,21.6,1.8,25.0,22.1,1.9,5.73,1.90,-1.9,28.9
2015-06-06 00:08:00,3.0,1.87613,0.00032,397.554,0.019,0.0081,0.0019,139.999,45.000,30710.40699,1.87626,397.594,34.738,45.067,45.000,0.00,0.10,-272.72,-272.78,-8,460,-7,25.3,21.7,1.8,25.0,22.3,2.0,5.73,1.90,-1.9,29.0
2015-06-06 00:09:00,3.0,1.87622,0.00032,397.541,0.029,0.0068,0.0018,139.997,45.000,30694.89312,1.87636,397.574,34.746,45.067,45.000,0.00,0.10,-272.72,-272.77,-8,461,-7,25.3,21.6,1.8,25.0,22.2,1.9,5.73,1.90,-1.9,28.9
2015-06-06 00:10:00,3.0,1.87613,0.00036,397.536,0.031,0.0069,0.0022,139.999,45.000,30684.47069,1.87625,397.569,34.747,45.067,45.000,0.00,0.10,-272.72,-272.78,-8,461,-7,25.3,21.7,1.9,25.0,22.3,2.0,5.73,1.90,-1.9,28.9
2015-06-06 00:11:00,3.0,1.87639,0.00031,397.569,0.030,0.0056,0.0023,140.000,45.000,30672.91645,1.87649,397.595,34.750,45.067,45.000,0.00,0.10,-272.72,-272.78,-8,461,-7,25.3,21.7,1.9,25.1,22.4,2.1,5.73,1.90,-1.9,28.9
2015-06-06 00:12:00,3.0,1.87649,0.00026,397.570,0.038,0.0050,0.0016,140.000,45.000,30664.45065,1.87657,397.593,34.756,45.067,45.000,0.00,0.10,-272.72,-272.78,-8,461,-7,25.3,21.5,1.7,25.0,22.1,1.9,5.73,1.89,-1.9,28.9
2015-06-06 00:13:00,3.0,1.87619,0.00031,397.572,0.028,0.0047,0.0024,139.997,45.000,30656.31673,1.87631,397.595,34.769,45.067,45.000,0.00,0.10,-272.71,-272.78,-7,461,-7,25.3,21.2,1.6,25.1,21.8,1.7,5.73,1.89,-1.8,29.0
2015-06-06 00:14:00,3.0,1.87637,0.00037,397.561,0.034,0.0040,0.0022,140.000,45.000,30651.97189,1.87642,397.581,34.757,45.067,45.000,0.00,0.10,-272.72,-272.78,-8,461,-7,25.4,21.3,1.6,25.1,21.9,1.8,5.73,1.89,-1.9,29.0
2015-06-06 00:15:00,3.0,1.87629,0.00044,397.571,0.027,0.0037,0.0026,140.000,45.000,30647.98915,1.87635,397.587,34.759,45.067,45.000,0.00,0.10,-272.72,-272.78,-8,462,-7,25.4,21.2,1.6,25.1,21.7,1.7,5.73,1.89,-1.8,29.0
2015-06-06 00:16:00,3.0,1.87630,0.00039,397.581,0.034,0.0046,0.0015,140.000,45.000,30644.65467,1.87639,397.603,34.770,45.067,45.000,0.00,0.10,-272.72,-272.78,-7,462,-7,25.4,21.4,1.7,25.1,22.0,1.9,5.73,1.88,-1.8,28.9
2015-06-06 00:17:00,3.0,1.87638,0.00036,397.595,0.035,0.0039,0.0024,140.003,45.000,30641.70742,1.87645,397.614,34.776,45.067,45.000,0.00,0.10,-272.72,-272.78,-8,462,-7,25.4,21.1,1.6,25.1,21.8,1.7,5.73,1.89,-1.8,28.9
2015-06-06 00:18:00,3.0,1.87632,0.00037,397.566,0.027,0.0023,0.0020,140.001,45.000,30639.64029,1.87637,397.579,34.791,45.067,45.000,0.00,0.10,-272.72,-272.78,-8,462,-7,25.4,21.0,1.4,25.1,21.6,1.6,5.73,1.89,-1.8,29.0
2015-06-06 00:19:00,3.0,1.87599,0.00037,397.563,0.032,0.0027,0.0022,139.997,45.000,30639.03097,1.87604,397.575,34.783,45.067,45.000,0.00,0.10,-272.72,-272.77,-8,462,-7,25.4,20.9,1.4,25.1,21.4,1.5,5.73,1.88,-1.8,29.0
2015-06-06 00:20:00,0.0,1.91720,0.00902,402.630,1.537,0.7545,0.2487,140.170,45.000,33762.97162,1.92969,406.152,34.787,45.067,45.000,0.00,0.10,-272.72,-272.78,-8,983,-7,25.4,21.1,1.5,25.1,21.6,1.7,5.73,1.94,-1.8,29.0
2015-06-06 00:21:00,0.0,1.91809,0.00032,403.030,0.069,0.8831,0.0040,140.004,45.000,34020.30179,1.93525,407.435,34.792,45.067,45.000,0.00,0.10,-272.72,-272.78,-8,986,-7,25.4,21.2,1.6,25.1,21.8,1.8,5.73,1.90,-1.8,29.1
2015-06-06 00:22:00,0.0,1.91762,0.00036,402.963,0.038,0.8865,0.0038,140.004,45.000,34085.04829,1.93486,407.381,34.796,45.067,45.000,0.00,0.10,-272.72,-272.77,-8,986,-7,25.4,21.2,1.6,25.1,21.8,1.8,5.73,1.92,-1.8,29.1
2015-06-06 00:23:00,0.0,1.91751,0.00033,402.933,0.055,0.8890,0.0018,140.001,45.000,34129.76667,1.93477,407.366,34.809,45.067,45.000,0.00,0.10,-272.71,-272.78,-8,985,-7,25.4,21.2,1.6,25.1,21.8,1.8,5.73,1.94,-1.8,29.1
2015-06-06 00:24:00,0.0,1.91749,0.00053,402.873,0.088,0.8911,0.0041,140.001,45.000,34169.89312,1.93481,407.314,34.804,45.067,45.000,0.00,0.10,-272.72,-272.79,-8,986,-7,25.4,21.2,1.6,25.2,21.8,1.8,5.73,1.95,-1.8,29.1
2015-06-06 00:25:00,0.0,1.91624,0.00036,402.908,0.044,0.9044,0.0078,140.001,45.000,34203.57441,1.93381,407.418,34.811,45.067,45.000,0.00,0.10,-272.72,-272.78,-8,985,-7,25.5,21.5,1.9,25.2,22.0,1.9,5.73,1.96,-1.8,29.1
2015-06-06 00:26:00,0.0,1.91690,0.00058,402.846,0.052,0.8971,0.0053,140.001,45.000,34227.52265,1.93429,407.320,34.807,45.067,45.000,0.00,0.10,-272.72,-272.77,-8,985,-7,25.4,21.3,1.7,25.2,22.0,1.9,5.73,1.94,-1.8,29.1
2015-06-06 00:27:00,0.0,1.91730,0.00046,402.836,0.105,0.8850,0.0051,140.002,45.000,34251.07016,1.93445,407.246,34.812,45.067,45.000,0.00,0.10,-272.72,-272.79,-8,987,-7,25.5,21.0,1.5,25.2,21.6,1.7,5.73,1.93,-1.8,29.1
2015-06-06 00:28:00,0.0,1.91689,0.00057,402.837,0.092,0.8867,0.0049,140.000,45.000,34271.24344,1.93413,407.255,34.813,45.067,45.000,0.00,0.10,-272.72,-272.79,-8,986,-7,25.5,21.0,1.5,25.2,21.6,1.7,5.73,1.91,-1.8,29.1
2015-06-06 00:29:00,0.0,1.91626,0.00038,402.857,0.034,0.8998,0.0023,140.000,45.000,34286.78545,1.93371,407.343,34.817,45.067,45.000,0.00,0.10,-272.71,-272.78,-8,985,-7,25.4,21.3,1.7,25.2,21.9,1.9,5.73,1.90,-1.8,29.0
2015-06-06 00:30:00,0.0,1.91659,0.00030,402.842,0.031,0.8986,0.0021,140.000,45.000,34300.52039,1.93403,407.323,34.824,45.067,45.000,0.00,0.10,-272.72,-272.78,-8,986,-7,25.5,21.3,1.7,25.2,21.9,1.9,5.73,1.89,-1.8,29.0
2015-06-06 00:31:00,0.0,1.91659,0.00034,402.821,0.053,0.8978,0.0024,140.000,45.000,34313.67941,1.93401,407.300,34.840,45.067,45.000,0.00,0.10,-272.72,-272.79,-8,986,-7,25.4,21.3,1.7,25.2,21.8,1.9,5.73,1.90,-1.8,29.0
2015-06-06 00:32:00,0.0,1.91677,0.00042,402.818,0.053,0.9012,0.0043,140.001,45.000,34321.89419,1.93424,407.308,34.862,45.067,45.000,0.00,0.10,-272.72,-272.78,-8,986,-7,25.5,21.3,1.7,25.2,21.9,1.9,5.73,1.91,-1.8,29.1
2015-06-06 00:33:00,0.0,1.91690,0.00036,402.772,0.033,0.9053,0.0030,139.999,45.000,34331.00694,1.93451,407.288,34.875,45.067,45.000,0.00,0.10,-272.72,-272.78,-8,987,-7,25.5,21.4,1.8,25.2,22.0,2.0,5.73,1.93,-1.8,29.1
2015-06-06 00:34:00,0.0,1.91733,0.00030,402.770,0.040,0.9007,0.0026,139.999,45.000,34336.98238,1.93480,407.259,34.875,45.067,45.000,0.00,0.10,-272.74,-272.78,-8,986,-7,25.5,21.3,1.7,25.2,21.9,1.9,5.73,1.95,-1.8,29.1
2015-06-06 00:35:00,0.0,1.91723,0.00035,402.764,0.039,0.9076,0.0032,139.999,45.000,34343.57722,1.93485,407.290,34.879,45.067,45.000,0.00,0.10,-272.76,-272.78,-8,986,-7,25.5,21.5,1.8,25.2,22.0,2.0,5.73,1.95,-1.8,29.1
2015-06-06 00:36:00,0.0,1.91719,0.00032,402.748,0.030,0.9088,0.0021,139.997,45.000,34348.73736,1.93485,407.280,34.887,45.067,45.000,0.00,0.10,-272.73,-272.79,-8,987,-7,25.5,21.5,1.8,25.2,22.1,2.0,5.73,1.95,-1.7,29.1
2015-06-06 00:37:00,0.0,1.91756,0.00031,402.716,0.050,0.9051,0.0023,140.002,45.000,34353.83688,1.93512,407.229,34.879,45.067,45.000,0.00,0.10,-272.72,-272.78,-8,986,-7,25.5,21.4,1.8,25.2,22.0,1.9,5.73,1.93,-1.8,29.1
2015-06-06 00:38:00,0.0,1.91728,0.00047,402.689,0.048,0.9036,0.0045,139.998,45.000,34357.71863,1.93483,407.193,34.876,45.067,45.000,0.00,0.10,-272.72,-272.79,-9,986,-7,25.5,21.3,1.7,25.2,21.9,1.9,5.73,1.91,-1.8,29.1
2015-06-06 00:39:00,0.0,1.91731,0.00023,402.757,0.047,0.9043,0.0040,140.001,45.000,34361.05046,1.93487,407.264,34.876,45.067,45.000,0.00,0.10,-272.71,-272.80,-8,986,-7,25.5,21.4,1.8,25.2,21.9,1.9,5.73,1.89,-1.7,29.1
2015-06-06 00:40:00,0.0,1.91725,0.00054,402.689,0.066,0.9136,0.0040,139.998,45.000,34363.45978,1.93498,407.247,34.875,45.067,45.000,0.00,0.10,-272.71,-272.77,-8,986,-7,25.5,21.6,1.9,25.2,22.2,2.1,5.73,1.89,-1.8,29.1
2015-06-06 00:41:00,0.0,1.91683,0.00042,402.729,0.040,0.9214,0.0059,140.001,45.000,34369.51324,1.93473,407.324,34.876,45.067,45.000,0.00,0.10,-272.72,-272.78,-8,986,-7,25.5,21.7,2.0,25.2,22.3,2.1,5.73,1.89,-1.7,29.1
2015-06-06 00:42:00,0.0,1.91707,0.00034,402.665,0.046,0.9218,0.0031,139.999,45.000,34371.28550,1.93501,407.262,34.881,45.067,45.000,0.00,0.10,-272.72,-272.79,-9,987,-7,25.5,21.7,2.0,25.2,22.3,2.2,5.73,1.92,-1.7,29.1
2015-06-06 00:43:00,0.0,1.91686,0.00027,402.699,0.038,0.9241,0.0032,139.998,45.000,34370.82354,1.93481,407.310,34.878,45.067,45.000,0.00,0.10,-272.71,-272.78,-8,986,-7,25.5,21.8,2.1,25.2,22.4,2.2,5.73,1.93,-1.7,29.1
2015-06-06 00:44:00,0.0,1.91728,0.00047,402.619,0.075,0.9168,0.0048,139.998,45.000,34373.53031,1.93508,407.191,34.902,45.067,45.000,0.00,0.10,-272.72,-272.78,-8,986,-7,25.5,21.6,1.9,25.2,22.2,2.1,5.73,1.96,-1.7,29.2
2015-06-06 00:45:00,0.0,1.91714,0.00040,402.654,0.048,0.9164,0.0025,140.003,45.000,34377.26781,1.93496,407.226,34.913,45.067,45.000,0.00,0.10,-272.72,-272.78,-9,987,-7,25.5,21.6,2.0,25.3,22.2,2.1,5.73,1.95,-1.7,29.1
2015-06-06 00:46:00,0.0,1.91736,0.00039,402.601,0.063,0.9168,0.0058,139.998,45.000,34375.11167,1.93512,407.172,34.912,45.067,45.000,0.00,0.10,-272.71,-272.78,-8,986,-7,25.5,21.6,2.0,25.3,22.2,2.2,5.73,1.94,-1.7,29.2
2015-06-06 00:47:00,0.0,1.91802,0.00040,402.608,0.059,0.9088,0.0038,140.005,45.000,34376.06460,1.93566,407.140,34.931,45.067,45.000,0.00,0.10,-272.72,-272.78,-8,986,-7,25.5,21.4,1.8,25.2,22.0,2.0,5.73,1.92,-1.7,29.2
2015-06-06 00:48:00,0.0,1.91803,0.00047,402.571,0.061,0.9025,0.0062,139.998,45.000,34375.90989,1.93558,407.068,34.895,45.067,45.000,0.00,0.10,-272.72,-272.78,-8,986,-7,25.5,21.2,1.7,25.3,21.8,1.9,5.73,1.90,-1.7,29.2
2015-06-06 00:49:00,0.0,1.91849,0.00043,402.595,0.050,0.8944,0.0042,140.001,45.000,34378.21156,1.93584,407.054,34.930,45.067,45.000,0.00,0.10,-272.72,-272.78,-8,987,-7,25.5,21.0,1.6,25.3,21.6,1.8,5.73,1.88,-1.7,29.2
2015-06-06 00:50:00,0.0,1.91821,0.00059,402.579,0.130,0.8912,0.0070,140.000,45.000,34377.50373,1.93557,407.014,34.937,45.067,45.000,0.00,0.10,-272.72,-272.77,-8,987,-7,25.5,21.0,1.5,25.3,21.5,1.7,5.73,1.89,-1.7,29.2
2015-06-06 00:51:00,0.0,1.91730,0.00034,402.573,0.085,0.9158,0.0068,139.996,45.000,34377.24939,1.93510,407.140,34.937,45.067,45.000,0.00,0.10,-272.72,-272.79,-8,986,-7,25.5,21.6,2.0,25.3,22.0,2.0,5.73,1.91,-1.7,29.1
2015-06-06 00:52:00,0.0,1.91773,0.00057,402.513,0.060,0.9170,0.0048,139.998,45.000,34379.70886,1.93552,407.082,34.938,45.067,45.000,0.00,0.10,-272.72,-272.79,-8,986,-7,25.5,21.6,2.0,25.3,22.2,2.1,5.73,1.95,-1.7,29.1
2015-06-06 00:53:00,0.0,1.91661,0.00041,402.551,0.048,0.9384,0.0084,139.996,45.000,34378.94401,1.93489,407.229,34.959,45.067,45.000,0.00,0.10,-272.71,-272.78,-9,987,-7,25.5,22.1,2.3,25.3,22.5,2.4,5.73,1.95,-1.7,29.2
2015-06-06 00:54:00,0.0,1.91675,0.00081,402.453,0.096,0.9345,0.0130,139.998,45.000,34382.61563,1.93489,407.120,34.996,45.067,45.000,0.00,0.10,-272.72,-272.78,-8,987,-7,25.6,21.9,2.2,25.3,22.7,2.4,5.73,1.95,-1.7,29.2
2015-06-06 00:55:00,0.0,1.91683,0.00061,402.521,0.079,0.9215,0.0120,139.996,45.000,34381.90784,1.93474,407.109,35.000,45.067,45.000,0.00,0.10,-272.72,-272.78,-8,986,-7,25.6,21.7,2.1,25.3,22.2,2.1,5.73,1.93,-1.7,29.1
2015-06-06 00:56:00,0.0,1.91565,0.00093,402.446,0.072,0.9423,0.0104,140.000,45.000,34383.13841,1.93402,407.148,35.009,45.067,45.000,0.00,0.10,-272.72,-272.78,-8,985,-7,25.6,22.1,2.3,25.3,22.7,2.4,5.73,1.89,-1.7,29.2
2015-06-06 00:57:00,0.0,1.91654,0.00080,402.484,0.057,0.9186,0.0158,139.997,45.000,34380.01377,1.93433,407.066,35.021,45.067,45.000,0.00,0.10,-272.72,-272.78,-9,987,-7,25.5,21.5,1.9,25.3,22.3,2.2,5.73,1.88,-1.7,29.2
2015-06-06 00:58:00,0.0,1.91646,0.00076,402.486,0.065,0.9180,0.0165,140.001,45.000,34382.88888,1.93431,407.059,35.056,45.067,45.000,0.00,0.10,-272.72,-272.79,-8,987,-7,25.6,21.6,2.0,25.3,22.0,2.0,5.73,1.88,-1.7,29.2
2015-06-06 00:59:00,0.0,1.91604,0.00032,402.384,0.060,0.9363,0.0069,139.999,45.000,34381.73140,1.93423,407.055,35.062,45.067,45.000,0.00,0.10,-272.72,-272.78,-8,986,-7,25.6,22.0,2.3,25.3,22.6,2.4,5.73,1.92,-1.7,29.2
2015-06-06 01:00:00,0.0,1.91588,0.00042,402.368,0.039,0.9318,0.0051,139.999,45.000,34381.03487,1.93399,407.013,35.057,45.067,45.000,0.00,0.10,-272.72,-272.77,-8,986,-7,25.6,21.9,2.2,25.3,22.5,2.3,5.73,1.95,-1.7,29.3
2015-06-06 01:01:00,0.0,1.91603,0.00040,402.377,0.039,0.9308,0.0054,140.000,45.000,34382.30492,1.93406,407.016,35.041,45.067,45.000,0.00,0.10,-272.73,-272.78,-9,986,-7,25.6,21.9,2.2,25.3,22.4,2.3,5.73,1.96,-1.7,29.3
2015-06-06 01:02:00,0.0,1.91726,0.00044,402.380,0.065,0.9169,0.0176,140.001,45.000,34382.12279,1.93506,406.953,35.060,45.067,45.000,0.00,0.10,-272.72,-272.77,-9,986,-7,25.6,21.4,1.9,25.3,22.2,2.2,5.73,1.94,-1.7,29.3
2015-06-06 01:03:00,0.0,1.91710,0.00072,402.425,0.081,0.9042,0.0171,140.001,45.000,34383.94099,1.93465,406.932,35.062,45.067,45.000,0.00,0.10,-272.71,-272.78,-8,987,-7,25.6,21.1,1.7,25.3,21.8,1.9,5.73,1.91,-1.7,29.2
2015-06-06 01:04:00,0.0,1.91706,0.00062,402.433,0.055,0.9003,0.0109,140.000,45.000,34384.80515,1.93458,406.915,35.061,45.067,45.000,0.00,0.10,-272.71,-272.78,-8,986,-7,25.6,21.1,1.7,25.3,21.6,1.8,5.73,1.88,-1.7,29.2
2015-06-06 01:05:00,0.0,1.91648,0.00053,402.344,0.088,0.9155,0.0133,139.997,45.000,34383.73451,1.93424,406.904,35.065,45.067,45.000,0.00,0.10,-272.74,-272.80,-8,986,-7,25.6,21.5,1.9,25.3,22.0,2.0,5.73,1.88,-1.7,29.2
2015-06-06 01:06:00,0.0,1.91546,0.00046,402.263,0.074,0.9451,0.0109,140.003,45.000,34383.56808,1.93386,406.977,35.078,45.067,45.000,0.00,0.10,-272.70,-272.76,-8,985,-7,25.6,22.2,2.4,25.3,22.6,2.5,5.73,1.91,-1.7,29.3
2015-06-06 01:07:00,0.0,1.91596,0.00074,402.361,0.047,0.9097,0.0147,139.999,45.000,34383.10091,1.93366,406.890,35.106,45.067,45.000,0.00,0.10,-272.71,-272.76,-8,986,-7,25.6,21.3,1.8,25.3,22.0,2.0,5.73,1.94,-1.7,29.2
2015-06-06 01:08:00,0.0,1.91454,0.00043,402.218,0.068,0.9525,0.0107,140.000,45.000,34383.72987,1.93305,406.970,35.123,45.067,45.000,0.00,0.10,-272.72,-272.81,-9,987,-7,25.6,22.3,2.5,25.3,22.8,2.5,5.73,1.97,-1.6,29.2
2015-06-06 01:09:00,0.0,1.91515,0.00046,402.271,0.051,0.9386,0.0048,139.998,45.000,34383.46429,1.93332,406.951,35.123,45.067,45.000,0.00,0.10,-272.74,-272.77,-9,986,-7,25.6,21.9,2.2,25.3,22.6,2.5,5.73,1.94,-1.6,29.2
2015-06-06 01:10:00,0.0,1.91619,0.00042,402.318,0.050,0.9159,0.0052,140.002,45.000,34383.06705,1.93399,406.883,35.126,45.067,45.000,0.00,0.10,-272.74,-272.78,-8,986,-7,25.6,21.4,1.9,25.3,22.1,2.1,5.73,1.90,-1.6,29.3
2015-06-06 01:11:00,0.0,1.91629,0.00042,402.338,0.082,0.9021,0.0173,139.998,45.000,34383.21811,1.93376,406.829,35.159,45.067,45.000,0.00,0.10,-272.70,-272.78,-8,986,-7,25.6,21.0,1.7,25.3,21.7,1.9,5.73,1.87,-1.6,29.3
2015-06-06 01:12:00,0.0,1.91574,0.00037,402.286,0.059,0.9112,0.0104,139.999,45.000,34383.71815,1.93345,406.827,35.184,45.067,45.000,0.00,0.10,-272.73,-272.76,-8,986,-7,25.6,21.2,1.8,25.3,21.9,2.0,5.73,1.88,-1.6,29.3
2015-06-06 01:13:00,0.0,1.91520,0.00047,402.296,0.062,0.9157,0.0103,139.999,45.000,34383.71282,1.93300,406.855,35.188,45.067,45.000,0.00,0.10,-272.71,-272.77,-8,986,-7,25.6,21.5,2.0,25.3,21.9,2.0,5.73,1.91,-1.6,29.3
2015-06-06 01:14:00,0.0,1.91518,0.00071,402.231,0.064,0.9185,0.0261,139.998,45.000,34385.30681,1.93301,406.815,35.185,45.067,45.000,0.00,0.10,-272.74,-272.76,-8,986,-7,25.6,21.4,1.9,25.3,22.2,2.2,5.73,1.95,-1.6,29.3
2015-06-06 01:15:00,0.0,1.91584,0.00038,402.339,0.066,0.8929,0.0081,139.999,45.000,34385.55195,1.93312,406.781,35.164,45.067,45.000,0.00,0.10,-272.71,-272.77,-9,987,-7,25.6,20.9,1.6,25.3,21.4,1.7,5.73,1.96,-1.6,29.2
2015-06-06 01:16:00,0.0,1.91531,0.00054,402.296,0.089,0.9102,0.0114,139.998,45.000,34384.50402,1.93302,406.828,35.173,45.067,45.000,0.00,0.10,-272.72,-272.78,-8,986,-7,25.7,21.2,1.8,25.3,21.8,1.9,5.73,1.94,-1.6,29.3
2015-06-06 01:17:00,0.0,1.91548,0.00069,402.305,0.118,0.8933,0.0102,139.998,45.000,34387.69538,1.93284,406.750,35.185,45.067,45.000,0.00,0.10,-272.71,-272.77,-8,987,-7,25.6,20.9,1.6,25.3,21.4,1.7,5.73,1.90,-1.6,29.3
2015-06-06 01:18:00,0.0,1.91475,0.00048,402.258,0.105,0.9178,0.0084,139.998,45.000,34386.86443,1.93250,406.829,35.187,45.067,45.000,0.00,0.10,-272.71,-272.78,-8,986,-7,25.7,21.4,2.0,25.4,21.9,2.0,5.73,1.87,-1.6,29.3
2015-06-06 01:19:00,0.0,1.91449,0.00074,402.263,0.089,0.9225,0.0144,139.999,45.000,34388.00377,1.93241,406.860,35.194,45.067,45.000,0.00,0.10,-272.72,-272.78,-8,985,-7,25.7,21.5,2.0,25.4,22.2,2.2,5.73,1.88,-1.6,29.3
2015-06-06 01:20:00,0.0,1.91526,0.00070,402.301,0.089,0.8979,0.0110,139.999,45.000,34390.66089,1.93265,406.773,35.222,45.067,45.000,0.00,0.10,-272.71,-272.78,-8,985,-7,25.7,20.9,1.6,25.4,21.6,1.8,5.73,1.93,-1.6,29.3
2015-06-06 01:21:00,0.0,1.91524,0.00060,402.339,0.056,0.9030,0.0054,139.997,45.000,34387.13910,1.93278,406.836,35.246,45.067,45.000,0.00,0.10,-272.72,-272.78,-8,985,-7,25.7,21.1,1.7,25.4,21.5,1.8,5.73,1.96,-1.6,29.4
2015-06-06 01:22:00,0.0,1.91546,0.00042,402.299,0.093,0.9033,0.0108,139.999,45.000,34387.42755,1.93297,406.799,35.228,45.067,45.000,0.00,0.10,-272.72,-272.78,-9,987,-7,25.7,21.0,1.7,25.4,21.7,1.9,5.73,1.96,-1.6,29.4
2015-06-06 01:23:00,0.0,1.91638,0.00043,402.298,0.070,0.8828,0.0090,140.000,45.000,34389.12936,1.93347,406.692,35.245,45.067,45.000,0.00,0.10,-272.72,-272.78,-9,987,-7,25.7,20.5,1.3,25.4,21.2,1.6,5.73,1.92,-1.6,29.3
2015-06-06 01:24:00,0.0,1.91615,0.00048,402.315,0.068,0.8724,0.0052,139.999,45.000,34389.78146,1.93313,406.657,35.244,45.067,45.000,0.00,0.10,-272.72,-272.78,-8,987,-7,25.7,20.2,1.2,25.4,20.8,1.4,5.73,1.88,-1.6,29.4
2015-06-06 01:25:00,0.0,1.91555,0.00045,402.297,0.059,0.8825,0.0075,140.001,45.000,34389.28929,1.93264,406.687,35.240,45.067,45.000,0.00,0.10,-272.72,-272.78,-8,986,-7,25.7,20.5,1.4,25.4,21.1,1.5,5.73,1.87,-1.6,29.4
2015-06-06 01:26:00,0.0,1.91384,0.00090,402.309,0.051,0.8896,0.0057,140.001,45.000,34390.00689,1.93116,406.735,35.225,45.067,45.000,0.00,0.10,-272.72,-272.77,-8,986,-7,25.7,20.7,1.5,25.4,21.2,1.6,5.73,1.90,-1.6,29.4
2015-06-06 01:27:00,0.0,1.91397,0.00063,402.257,0.066,0.8877,0.0090,139.999,45.000,34388.38070,1.93116,406.677,35.230,45.067,45.000,0.00,0.10,-272.71,-272.77,-8,986,-7,25.7,20.6,1.4,25.4,21.3,1.6,5.73,1.95,-1.5,29.4
2015-06-06 01:28:00,0.0,1.91362,0.00035,402.253,0.036,0.8856,0.0026,139.995,45.000,34388.64635,1.93075,406.661,35.235,45.067,45.000,0.00,0.10,-272.72,-272.78,-8,985,-7,25.7,20.6,1.4,25.4,21.1,1.6,5.73,1.97,-1.5,29.5
2015-06-06 01:29:00,0.0,1.91363,0.00035,402.272,0.025,0.8846,0.0020,140.000,45.000,34391.08318,1.93076,406.674,35.249,45.067,45.000,0.00,0.10,-272.71,-272.78,-8,985,-7,25.7,20.6,1.4,25.4,21.1,1.6,5.73,1.94,-1.5,29.4
2015-06-06 01:30:00,0.0,1.91310,0.00056,402.204,0.049,0.8919,0.0053,139.997,45.000,34391.47787,1.93040,406.644,35.245,45.067,45.000,0.00,0.10,-272.71,-272.77,-8,985,-7,25.7,20.7,1.5,25.4,21.3,1.7,5.73,1.90,-1.5,29.4
2015-06-06 01:31:00,0.0,1.90864,0.00592,402.007,0.316,0.8729,0.0211,139.997,45.000,34391.73616,1.92612,406.371,35.235,45.067,45.000,0.00,0.10,-272.72,-272.77,-9,986,-7,25.7,19.9,1.0,25.4,21.0,1.5,5.73,1.86,-1.6,29.4
2015-06-06 01:32:00,0.0,1.89585,0.00173,401.676,0.165,0.7605,0.0249,139.998,45.000,34392.38058,1.91045,405.442,35.236,45.067,45.000,0.00,0.10,-272.72,-272.78,-9,986,-7,25.7,17.4,-0.8,25.4,18.5,-0.3,5.73,1.89,-1.6,29.4
2015-06-06 01:33:00,0.0,1.89401,0.00047,401.626,0.092,0.7323,0.0221,139.996,45.000,34390.73622,1.90801,405.251,35.245,45.067,45.000,0.00,0.10,-272.72,-272.78,-9,987,-7,25.7,16.6,-1.5,25.4,17.5,-1.0,5.73,1.94,-1.6,29.5
2015-06-06 01:34:00,0.0,1.89433,0.00057,401.757,0.051,0.6862,0.0130,140.000,45.000,34392.75452,1.90741,405.145,35.250,45.067,45.000,0.00,0.10,-272.71,-272.77,-9,987,-7,25.7,15.5,-2.4,25.4,16.3,-2.0,5.73,1.97,-1.6,29.5
2015-06-06 01:35:00,0.0,1.89405,0.00036,401.746,0.043,0.6812,0.0089,139.997,45.000,34393.42904,1.90702,405.108,35.262,45.067,45.000,0.00,0.10,-272.72,-272.78,-8,987,-7,25.7,15.3,-2.6,25.4,15.9,-2.3,5.73,1.95,-1.6,29.5
2015-06-06 01:36:00,0.0,1.89331,0.00056,401.716,0.043,0.6919,0.0147,140.000,45.000,34392.24396,1.90651,405.126,35.296,45.067,45.000,0.00,0.10,-272.72,-272.78,-8,987,-7,25.7,15.8,-2.2,25.5,16.1,-2.1,5.73,1.88,-1.1,29.4
2015-06-06 01:37:00,0.0,1.89327,0.00061,401.642,0.082,0.7173,0.0219,140.000,45.000,34392.41404,1.90693,405.186,35.310,45.067,45.000,0.00,0.10,-272.71,-272.77,-8,987,-7,25.7,16.3,-1.8,25.5,16.8,-1.5,5.73,1.86,-0.7,29.4
2015-06-06 01:38:00,0.0,1.89384,0.00056,401.734,0.084,0.6937,0.0207,139.999,45.000,34392.68357,1.90704,405.160,35.313,45.067,45.000,0.00,0.10,-272.72,-272.78,-8,987,-8,25.7,15.7,-2.2,25.5,16.3,-1.9,5.73,1.89,-0.8,29.4
2015-06-06 01:39:00,0.0,1.89395,0.00036,401.700,0.066,0.6986,0.0113,140.000,45.000,34393.95808,1.90725,405.150,35.313,45.067,45.000,0.00,0.10,-272.73,-272.78,-9,987,-8,25.7,15.8,-2.1,25.4,16.4,-1.8,5.73,1.95,-0.9,29.4
2015-06-06 01:40:00,0.0,1.89370,0.00036,401.699,0.039,0.6959,0.0059,139.996,45.000,34395.73406,1.90695,405.135,35.313,45.067,45.000,0.00,0.10,-272.72,-272.78,-8,987,-7,25.7,15.8,-2.1,25.5,16.3,-1.9,5.73,1.97,-0.9,29.4
2015-06-06 01:41:00,0.0,1.89345,0.00046,401.673,0.075,0.7035,0.0206,140.000,45.000,34392.58050,1.90685,405.148,35.313,45.067,45.000,0.00,0.10,-272.71,-272.78,-9,987,-7,25.7,16.0,-2.0,25.5,16.5,-1.8,5.73,1.92,-1.0,29.4
2015-06-06 01:42:00,0.0,1.89339,0.00060,401.668,0.072,0.7071,0.0180,140.000,45.000,34392.14516,1.90690,405.163,35.313,45.067,45.000,0.00,0.10,-272.72,-272.78,-8,987,-7,25.8,16.0,-2.0,25.5,16.6,-1.7,5.73,1.87,-1.0,29.4
2015-06-06 01:43:00,0.0,1.89319,0.00031,401.742,0.036,0.6808,0.0094,139.996,45.000,34389.40902,1.90613,405.102,35.314,45.067,45.000,0.00,0.10,-272.72,-272.78,-8,987,-7,25.8,15.5,-2.4,25.5,16.0,-2.2,5.73,1.87,-1.0,29.5
2015-06-06 01:44:00,0.0,1.89241,0.00048,401.646,0.068,0.7099,0.0129,139.999,45.000,34392.26295,1.90598,405.153,35.313,45.067,45.000,0.00,0.10,-272.70,-272.77,-8,987,-8,25.8,16.1,-1.9,25.5,16.6,-1.7,5.73,1.92,-1.1,29.4
2015-06-06 01:45:00,0.0,1.89314,0.00039,401.718,0.035,0.6842,0.0088,139.999,45.000,34391.98476,1.90612,405.095,35.320,45.067,45.000,0.00,0.10,-272.72,-272.78,-8,987,-8,25.8,15.5,-2.4,25.5,16.1,-2.1,5.73,1.97,-1.1,29.4
2015-06-06 01:46:00,0.0,1.89256,0.00061,401.594,0.086,0.7276,0.0249,140.000,45.000,34391.97726,1.90641,405.188,35.316,45.067,45.000,0.00,0.10,-272.72,-272.78,-8,987,-8,25.8,16.6,-1.4,25.5,17.0,-1.4,5.73,1.95,-1.1,29.4
2015-06-06 01:47:00,0.0,1.89269,0.00054,401.624,0.053,0.7121,0.0133,140.000,45.000,34393.04511,1.90628,405.142,35.316,45.067,45.000,0.00,0.10,-272.71,-272.78,-8,987,-8,25.8,16.3,-1.7,25.5,16.8,-1.5,5.73,1.90,-1.1,29.4